Tiempo Historia de Rexburg, ID

Change the Weather History Date:

Sábado, Marzo 17, 2012

  Actual Average Record
Temperature  
Temperatura media 46 ° F 35 ° F  
Temperatura máxima 54 ° F 45 ° F 67 ° F (2007)
Temperatura mínima 37 ° F 25 ° F 9 ° F (2008)
Degree Days  
Grados día de calefacción 19 30  
Month to date heating degree days 492 575  
Since 1 July heating degree days 5933 6548  
Cooling Degree Days 0 0  
Month to date cooling degree days 0 0  
Year to date cooling degree days 0 0  
Moisture  
Punto de rocío 36 ° F    
Average Humidity 72    
Maximum Humidity 93    
Minimum Humidity 50    
Precipitación  
Precipitación 0.04 pul 0.03 pul 0.39 pul (1986)
Month to date precipitation 0.62 0.49  
Year to date precipitation 2.34 2.06  
Presión al nivel del mar  
Presión al nivel del mar 29.49 pul    
Viento  
Velocidad del viento 8 mph (SSO)    
Velocidad máxima del viento 29 mph    
Max Gust Speed 37 mph    
Visibilidad 10 Millas    
Eventos Lluvia    
T = Trace of Precipitation, MM = Missing Value Source: NWS Daily Summary

Daily Weather History Graph

Daily Weather History Graph

Search for Another Location

Airport:

Trip Planner

Search our weather history database for the weather conditions in past years. The results will help you decide how hot, cold, wet, or windy it might be!

Date:

Astronomía

Mar. 17, 2012 Salida Puesta
Hora real 7:34 AM MDT 7:36 PM MDT
Crepúsculo civil 7:06 AM MDT 8:05 PM MDT
Crepúsculo náutico 6:32 AM MDT 8:38 PM MDT
Crepúsculo astronómico 5:58 AM MDT 9:13 PM MDT
Luna 4:47 AM MDT (3/17) 2:56 PM MDT (3/17)
Horas de luz 12h 59m
Horas de luz
12h 01m
Creciente menguante, 22% of the Moon is Illuminated
Mar 17
Creciente menguante
Mar 22
Nueva
Mar 30
Cuarto creciente
Abr 6
Luna llena
Abr 13
Cuarto menguante

Hourly Weather History & Observations

Hora (MDT) Temp. Vientos helados Punto de rocío Humedad Presión Visibilidad Wind Dir Velocidad del viento Velocidad de ráfagas Precip Eventos Condiciones
12:53 AM 41.0 ° F 37.1 ° F 39.0 ° F 93% 29.62 pul 10.0 mi NE 5.8 mph - 0.04 pul Lluvia Lluvia débil
1:53 AM 39.9 ° F 37.8 ° F 37.9 ° F 93% 29.59 pul 10.0 mi ENE 3.5 mph - 0.01 pul Lluvia Lluvia débil
2:53 AM 39.0 ° F 36.8 ° F 37.9 ° F 96% 29.56 pul 10.0 mi Norte 3.5 mph - 0.00 pul   Nublado
3:53 AM 41.0 ° F - 39.0 ° F 93% 29.55 pul 10.0 mi Sin viento Sin viento - N/A   Nublado
4:53 AM 43.0 ° F 40.3 ° F 37.9 ° F 82% 29.53 pul 10.0 mi SSO 4.6 mph - 0.01 pul   Nublado
5:53 AM 42.1 ° F 39.2 ° F 37.9 ° F 85% 29.52 pul 10.0 mi SO 4.6 mph - N/A   Muy nublado
6:53 AM 41.0 ° F 37.1 ° F 37.9 ° F 89% 29.49 pul 10.0 mi NE 5.8 mph - 0.00 pul   Nublado
7:53 AM 42.1 ° F - 37.9 ° F 85% 29.46 pul 10.0 mi Sin viento Sin viento - 0.00 pul   Nublado
8:53 AM 46.0 ° F 41.4 ° F 36.0 ° F 68% 29.45 pul 10.0 mi SSE 9.2 mph 18.4 mph 0.01 pul Lluvia Lluvia débil
9:53 AM 50.0 ° F - 37.0 ° F 61% 29.43 pul 10.0 mi Sur 11.5 mph 21.9 mph 0.00 pul   Muy nublado
10:53 AM 51.1 ° F - 37.0 ° F 59% 29.42 pul 10.0 mi Sur 16.1 mph 21.9 mph N/A   Nublado
11:53 AM 54.0 ° F - 36.0 ° F 51% 29.39 pul 10.0 mi Sur 18.4 mph 28.8 mph N/A   Nubes dispersas
12:53 PM 48.0 ° F - 39.0 ° F 71% 29.44 pul 10.0 mi SO 20.7 mph 26.5 mph N/A   Nublado
1:16 PM 46.4 ° F 38.5 ° F 37.4 ° F 71% 29.48 pul 10.0 mi SO 21.9 mph 28.8 mph N/A   Nublado
1:53 PM 46.0 ° F 39.3 ° F 37.9 ° F 73% 29.46 pul 10.0 mi SSO 16.1 mph 20.7 mph N/A   Muy nublado
2:07 PM 46.4 ° F 40.4 ° F 37.4 ° F 71% 29.46 pul 10.0 mi SO 13.8 mph - N/A   Nubes dispersas
2:53 PM 48.9 ° F - 39.0 ° F 69% 29.41 pul 10.0 mi SO 15.0 mph 20.7 mph N/A   Despejado
3:15 PM 46.4 ° F 38.7 ° F 37.4 ° F 71% 29.45 pul 10.0 mi SO 20.7 mph 26.5 mph N/A   Muy nublado
3:53 PM 42.1 ° F 33.1 ° F 36.0 ° F 79% 29.48 pul 10.0 mi SSO 20.7 mph 33.4 mph N/A   Nublado
4:00 PM 41.0 ° F 31.9 ° F 35.6 ° F 81% 29.49 pul 10.0 mi SO 19.6 mph 28.8 mph N/A   Nublado
4:53 PM 39.9 ° F 31.8 ° F 35.1 ° F 83% 29.49 pul 10.0 mi SSO 15.0 mph 21.9 mph 0.00 pul   Nublado
5:53 PM 37.9 ° F 31.5 ° F 34.0 ° F 86% 29.51 pul 10.0 mi Sur 9.2 mph - N/A   Nublado
6:21 PM 37.4 ° F 32.1 ° F 33.8 ° F 87% 29.51 pul 10.0 mi SSO 6.9 mph - N/A   Nublado
6:53 PM 37.0 ° F 33.3 ° F 34.0 ° F 89% 29.51 pul 8.0 mi SSO 4.6 mph - 0.01 pul Lluvia Lluvia débil
7:01 PM 37.4 ° F 33.8 ° F 33.8 ° F 87% 29.50 pul 10.0 mi SSO 4.6 mph - 0.00 pul Lluvia Lluvia débil
7:09 PM 37.4 ° F 34.9 ° F 33.8 ° F 87% 29.50 pul 10.0 mi SO 3.5 mph - 0.00 pul Lluvia Lluvia débil
7:43 PM 37.4 ° F - 33.8 ° F 87% 29.50 pul 10.0 mi Sin viento Sin viento - 0.00 pul   Nublado
7:53 PM 37.0 ° F - 34.0 ° F 89% 29.50 pul 10.0 mi Sin viento Sin viento - 0.00 pul   Muy nublado
8:06 PM 37.4 ° F - 33.8 ° F 87% 29.51 pul 10.0 mi Sin viento Sin viento - N/A   Nublado
8:20 PM 37.4 ° F 32.8 ° F 33.8 ° F 87% 29.50 pul 10.0 mi NE 5.8 mph - N/A   Nublado
8:40 PM 37.4 ° F 32.1 ° F 33.8 ° F 87% 29.49 pul 10.0 mi NE 6.9 mph - N/A   Nublado
8:53 PM 37.0 ° F 33.3 ° F 34.0 ° F 89% 29.49 pul 10.0 mi NE 4.6 mph - N/A   Nublado
9:35 PM 37.4 ° F 34.9 ° F 35.6 ° F 93% 29.49 pul 10.0 mi Norte 3.5 mph - N/A   Nublado
9:53 PM 37.0 ° F 34.5 ° F 34.0 ° F 89% 29.46 pul 10.0 mi ENE 3.5 mph - N/A   Nubes dispersas
10:53 PM 37.0 ° F - 35.1 ° F 93% 29.45 pul 10.0 mi Sin viento Sin viento - N/A   Nublado
11:53 PM 37.0 ° F 33.3 ° F 35.1 ° F 93% 29.44 pul 10.0 mi ENE 4.6 mph - N/A   Nublado